User: anonymous   Login
Location: Caltech
(34.1382°N, 118.1253°W)
Time: 19:52:10
(UTC-08:00)
Language:

Courier 1B - Orbit

View from above orbital plane
View from above orbital plane
View from above satellite
View from above satellite

Ground track
Ground track

The orbit data is extracted from the following two-line orbital elements,

1 00058U 60013A   14326.47679211  .00000101  00000-0  22222-4 0  8182
2 00058 028.3293 333.2946 0165007 150.0839 210.9251 13.46283901664842
Epoch (UTC): 22 November 2014 11:26:34
Eccentricity: 0.0165007
inclination: 28.3293°
perigee height: 963 km
apogee height: 1209 km
right ascension of ascending node: 333.2946°
argument of perigee: 150.0839°
revolutions per day: 13.46283901
mean anomaly at epoch: 210.9251°
orbit number at epoch: 66484

The dashed part of the orbit path shows where the satellite is in the earth's shadow,  

DLR